Regional Weather Roundup
Issued by NWS

Home | Current Version | Previous Version | Graphics & Text | Print | Product List | Glossary On
Versions: 1 2 3 4 5 6 7 8 9 10 11 12 13 14 15 16 17 18 19 20 21 22 23 24 25 26 27 28 29 30 31 32 33 34 35 36 37 38 39 40 41 42 43
000
ASUS45 KBOU 011307
RWRCO

WEATHER ROUNDUP FOR COLORADO
NATIONAL WEATHER SERVICE DENVER/BOULDER CO
700 AM MDT WED OCT 01 2014

NOTE: "FAIR" INDICATES FEW OR NO CLOUDS BELOW 12000 FEET WITH NO
SIGNIFICANT WEATHER AND/OR OBSTRUCTIONS TO VISIBILITY.

COZ001>005-013-030-031-011400-
...NORTHWEST COLORADO...

CITY           SKY/WX    TMP DP  RH WIND       PRES   REMARKS
CRAIG          LGT RAIN  43  40  89 W7        29.99R
HAYDEN         CLOUDY    43  37  81 SW5       29.98R
MEEKER         RAIN      40  36  86 NW8       30.01R FOG
MOUNT WERNER   NOT AVBL
STEAMBOAT SPGS CLOUDY    40  39  97 CALM      29.96F
WALDEN         PTCLDY    34  32  93 SE3       29.99R
$$

COZ006>008-011-011400-
...WEST CENTRAL VALLEYS...

CITY           SKY/WX    TMP DP  RH WIND       PRES   REMARKS
GRAND JUNCTION RAIN      45  43  93 NW15      29.96R
MONTROSE       CLOUDY    46  41  82 NW10      29.97R
EAGLE          CLOUDY    39  39 100 CALM      30.00S FOG
RIFLE          CLOUDY    44  41  89 NE3       29.95R
DELTA          RAIN      48  45  90 NE8       29.93S
NUCLA          CLOUDY    45  41  87 CALM      29.98S
$$

COZ017>023-064>068-011400-
...SOUTHWEST COLORADO...

CITY           SKY/WX    TMP DP  RH WIND       PRES   REMARKS
DURANGO        PTCLDY    37  35  92 E5        30.01R
CORTEZ         MOCLDY    43  40  89 E3        29.96R
PAGOSA SPRINGS PTCLDY    35  35  99 CALM      30.05S
TELLURIDE      CLOUDY   N/A N/A N/A CALM      30.07R
WOLF CREEK PAS CLEAR     27  27 100 SW15      30.17S WCI  15
$$

COZ009-010-012-014-032>034-037-058>063-011400-
...CENTRAL COLORADO...

CITY           SKY/WX    TMP DP  RH WIND       PRES   REMARKS
ASPEN          MOCLDY    41  32  70 SE9       29.98F
BUENA VISTA    MOCLDY    32  28  86 NW6       30.03S WCI  26
COPPER MTN     PTCLDY    34  27  75 S14       30.13R WCI  24
BERTHOUD PASS    N/A     23  21  93 NW9       30.15R WCI  13
COTTONWOOD PAS PTCLDY    39  28  65 CALM      30.08S
GUNNISON       MOCLDY    34  30  86 CALM      30.06R
KREMMLING      CLOUDY    37  34  87 CALM      30.01R
LEADVILLE      CLOUDY    29  27  92 CALM      30.07R
MONARCH PASS   FOG       28  28 100 MISG      30.24S VSB<1/4
SALIDA         PTCLDY    38  31  76 NW3       30.09S
SUNLIGHT       MOCLDY    34  32  93 CALM      30.08F
WILKERSON PASS NOT AVBL
$$

COZ069>075-011400-
...SAN LUIS VALLEY/SANGRE DE CRISTO MOUNTAINS...

CITY           SKY/WX    TMP DP  RH WIND       PRES   REMARKS
ALAMOSA        PTCLDY    29  26  89 CALM      30.04S
LA VETA PASS   CLEAR     32  30  93 SW7       30.10S WCI  26
SAGUACHE       PTCLDY    34  32  93 NW8       30.05S WCI  27
$$

COZ035-036-038>040-011400-
...NORTHERN COLORADO FRONT RANGE...

CITY           SKY/WX    TMP DP  RH WIND       PRES   REMARKS
DENVER INTL AP MOCLDY    41  37  86 SE7       29.90R
DMNS CITY PARK   N/A     46  37  71 W2        29.90R
AURORA         MOCLDY    44  35  71 SE7       29.91R
FRONT RANGE AP MOCLDY    45  37  76 S5        29.91R
ERIE MUNI ARPT CLOUDY    44  40  86 CALM      29.90R
BOULDER MUN AP CLOUDY    45  39  81 CALM      29.90R
CENTENNIAL     MOCLDY    45  35  68 S7        29.91R
BROOMFIELD     MOCLDY    48  37  66 NW10      29.91R
FORT COLLINS   CLOUDY    45  41  87 S6        29.90R
LONGMONT       CLOUDY    45  41  86 SW5       29.91R
$$

COZ041-046-047-076>085-087-088-011400-
...PIKES PEAK/PALMER DIVIDE AND SOUTHERN FOOTHILLS...

CITY           SKY/WX    TMP DP  RH WIND       PRES   REMARKS
COLO. SPRINGS  MOCLDY    49  33  54 VRB3      29.95R
A. F. ACADEMY  MOCLDY    40  30  67 N7        29.95R
ELLICOTT       NOT AVBL
FALCON         MOCLDY    43  32  65 W8        29.97R
FORT CARSON    MOCLDY    44  35  68 W2        29.93R
LIMON          PTCLDY    40  37  89 W8        29.91S
MONUMENT HILL  MOCLDY    36  30  80 S7        29.95S
TRINIDAD       CLEAR     41  32  70 VRB6      29.95R
$$

COZ042>045-048>051-090-091-011400-
...NORTHEAST COLORADO...

CITY           SKY/WX    TMP DP  RH WIND       PRES   REMARKS
GREELEY ARPT   MOCLDY    45  36  70 CALM      29.90R
AKRON          PTCLDY    50  38  63 NW9       29.88R
BURLINGTON     CLEAR     47  41  80 NW7       29.86R
WRAY           CLEAR     45  43  93 NW6       29.85R
STERLING       PTCLDY    50  43  76 S7        29.86R
HOLYOKE        CLEAR     54  45  71 W7        29.85R
FORT MORGAN    PTCLDY    44  40  86 W6        29.89R
$$

COZ086-089-092>099-011400-
...SOUTHEAST COLORADO...

CITY           SKY/WX    TMP DP  RH WIND       PRES   REMARKS
PUEBLO         PTCLDY    45  36  70 NE3       29.90R
LA JUNTA       CLEAR     47  37  68 W8        29.88R
LAMAR          PTCLDY    45  42  89 W3        29.83R
SPRINGFIELD      N/A     48  36  63 NW8       29.85R
$$


USA.gov is the U.S. government's official web portal to all federal, state and local government web resources and services.